Location: Vancouver
(49.2500°N, 123.1330°W)
Time: 15:21:55
(UTC-07:00)

SO-67 - Visible Passes

Search period start: 17 October 2017 00:00
Search period end: 27 October 2017 00:00
Orbit: 400 x 404 km, 97.1° (Epoch: 17 October)

Date Brightness Start Highest point End Pass type
(mag) Time Alt. Az. Time Alt. Az. Time Alt. Az.
17 Oct ? 19:11:27 10° SSE 19:14:32 77° ENE 19:17:40 10° N visible
18 Oct ? 19:54:04 10° SSW 19:56:48 27° W 19:59:32 10° NW visible
19 Oct ? 19:04:01 10° SSE 19:07:04 60° ENE 19:10:10 10° N visible
20 Oct ? 19:46:22 10° SSW 19:49:15 34° W 19:52:09 10° NNW visible
21 Oct ? 18:56:32 10° SSE 18:59:32 46° ENE 19:02:34 10° N visible
21 Oct ? 20:30:44 10° WSW 20:31:38 11° W 20:32:33 10° WNW visible
22 Oct ? 19:38:38 10° S 19:41:37 43° W 19:44:39 10° NNW visible
23 Oct ? 18:49:02 10° SE 18:51:56 37° ENE 18:54:51 10° N visible
23 Oct ? 20:22:18 10° WSW 20:23:56 13° W 20:25:36 10° WNW visible
24 Oct ? 19:30:53 10° S 19:33:57 56° W 19:37:02 10° NNW visible
25 Oct ? 18:41:30 10° SE 18:44:16 30° ENE 18:47:03 10° N visible
25 Oct ? 20:14:06 10° SW 20:16:11 17° W 20:18:17 10° NW visible
26 Oct ? 19:23:06 10° S 19:26:12 73° WSW 19:29:20 10° NNW visible
